#timestamp,LO_Frequency,Hit,StdDev 
1503306015.5,286047000.4,N,0.7
1503306035.3,286047000.1,N,0.7
1503306055.2,286047002.7,Y,0.0
1503306075.0,286047000.8,P,0.0
1503306075.9,286047000.8,P,0.0
1503306095.8,286047000.0,P,0.3
1503306115.6,286047000.1,N,0.4
1503306135.4,286047001.0,N,0.4
1503306155.3,286047000.8,N,0.4
1503306175.1,286046998.6,Y,0.0
1503306195.8,286046998.5,P,1.1
1503306215.7,286047001.2,N,1.2
1503306235.5,286046998.5,N,1.2
1503306255.4,286047001.0,N,1.2
1503306275.2,286047001.0,N,1.2
1503306295.0,286047001.1,N,1.1
1503306295.9,286047001.1,N,1.1
1503306315.8,286047001.0,N,1.1
1503306335.6,286046998.3,N,1.2
1503306355.5,286046998.6,N,1.2
1503306375.3,286046999.9,N,1.2
1503306395.1,286047000.3,N,1.1
1503306415.9,286047000.2,N,1.1
1503306435.7,286047000.2,N,1.1
1503306455.6,286047001.2,N,1.1
1503306475.4,286047001.1,N,1.0
1503306495.2,286046999.9,N,1.0
1503306515.1,286047001.5,N,1.0
1503306516.0,286047001.5,N,1.0
1503306535.8,286047002.1,N,1.1
1503306555.6,286047002.1,N,1.1
1503306575.5,286047002.3,N,1.2
1503306595.3,286046999.7,N,1.1
1503306615.2,286047002.8,N,1.2
1503306635.9,286046999.8,N,1.2
1503306655.7,286047002.8,N,1.2
1503306675.6,286047001.8,N,1.2
1503306695.4,286047002.2,N,1.2
1503306715.3,286047002.1,N,1.2
1503306735.1,286046999.7,N,1.3
1503306736.0,286046999.7,N,1.2
1503306755.8,286047002.3,N,1.2
1503306775.7,286047002.5,N,1.2
1503306795.5,286047002.5,N,1.2
1503306815.3,286047002.5,N,1.2
1503306835.2,286047000.2,N,1.3
1503306855.0,286047002.0,N,1.3
1503306855.9,286047002.0,N,1.3
1503306875.8,286047001.8,N,1.2
1503306895.6,286047002.7,N,1.1
1503306915.4,286047002.3,N,1.1
1503306935.3,286046999.8,N,1.1
1503306955.1,286047001.3,N,1.1
1503306975.9,286047001.6,N,1.0
1503306995.7,286047004.4,Y,0.0
1503307015.5,286046999.7,P,0.9
1503307035.4,286046999.8,N,0.8
1503307055.2,286047000.5,N,0.7
1503307075.1,286047000.2,N,0.7
1503307076.0,286047000.2,N,0.6
1503307095.8,286047002.8,Y,0.0
1503307115.6,286047000.7,P,0.2
1503307135.5,286047000.2,N,0.2
1503307155.3,286047001.0,P,0.3
1503307175.2,286046998.1,Y,0.0
1503307195.9,286047000.8,P,0.1
1503307215.7,286047000.5,P,0.1
1503307235.6,286047001.2,P,0.3
1503307255.4,286047001.2,Y,0.0
1503307275.2,286046998.2,P,1.3
1503307295.1,286046998.3,N,1.2
1503307296.0,286046998.3,N,1.1
1503307315.8,286046998.4,N,1.0
1503307335.7,286046998.9,N,0.9
1503307355.5,286046998.3,N,0.9
1503307375.3,286046998.9,N,0.8
1503307395.2,286046999.2,N,0.8
1503307415.0,286046998.9,N,0.7
1503307415.9,286046998.9,N,0.7
1503307435.8,286046998.4,N,0.7
1503307455.6,286046998.4,N,0.7
1503307475.4,286046998.2,N,0.6
1503307495.3,286046998.5,N,0.6
1503307515.1,286046998.3,N,0.6
1503307535.9,286047000.7,N,0.8
1503307555.7,286047001.2,N,0.9
1503307575.5,286046998.5,N,0.9
1503307595.4,286046998.9,N,0.9
1503307615.2,286047001.2,N,1.0
1503307635.0,286046998.7,N,1.0
1503307635.9,286046998.7,N,1.0
1503307655.8,286046998.4,N,0.9
1503307675.6,286046998.8,N,0.9
1503307695.5,286046998.8,N,0.9
1503307715.3,286046998.3,N,0.9
1503307735.1,286046998.8,N,0.9
1503307755.9,286046999.4,N,0.9
1503307775.7,286046996.9,Y,0.0
1503307795.6,286047000.7,P,0.9
1503307815.4,286046998.5,N,1.0
1503307835.2,286046999.6,N,0.8
1503307855.1,286046996.7,Y,0.0
1503307856.0,286046996.7,P,1.4
1503307875.8,286046999.0,N,1.2
1503307895.7,286046996.9,N,1.2
1503307915.5,286046997.2,N,1.1
1503307935.3,286046997.1,N,1.1
1503307955.2,286046997.1,N,1.0
1503307975.0,286046997.8,N,1.0
1503307975.9,286046997.8,N,0.9
1503307995.8,286046998.0,N,0.9
1503308015.6,286046997.3,Y,0.0
1503308035.4,286046998.1,P,0.2
1503308055.3,286046998.5,P,0.3
1503308075.1,286046999.5,N,0.7
1503308095.9,286046999.3,N,0.7
1503308115.7,286046997.4,Y,0.0
1503308135.5,286046999.2,P,0.3
1503308155.4,286046999.1,P,0.3
1503308175.2,286046999.2,P,0.2
1503308195.1,286046999.0,Y,0.0
1503308196.0,286046999.0,P,0.0
1503308215.8,286046998.6,P,0.2
1503308235.6,286046999.6,N,0.4
1503308255.5,286046999.1,N,0.3
1503308275.3,286046996.8,Y,0.0
1503308295.2,286046999.1,P,0.0
1503308315.9,286046999.2,P,0.1
1503308335.7,286046997.2,P,0.8
1503308355.6,286046997.6,N,0.9
1503308375.4,286046996.6,Y,0.0
1503308395.2,286046998.1,P,0.2
1503308415.1,286046998.4,P,0.1
1503308416.0,286046998.4,P,0.1
1503308435.8,286046998.1,Y,0.0
1503308455.7,286047000.2,P,0.9
1503308475.5,286047000.8,N,1.1
1503308495.3,286047001.0,N,1.1
1503308515.2,286682703.7,Y,0.0
1503308535.0,286046998.5,P,0.8
1503308535.9,286046998.5,N,0.7
1503308555.8,286047001.0,N,1.1
1503308575.6,286046998.1,N,1.1
1503308595.4,286046998.4,N,1.1
1503308615.3,286046998.5,N,1.0
1503308635.1,286046998.5,N,1.0
1503308655.9,286046998.7,N,0.9
1503308675.7,286046999.4,N,0.9
1503308695.5,286046999.0,N,0.8
1503308715.4,286046998.8,N,0.8
1503308735.2,286046998.8,N,0.8
1503308755.0,286046999.5,N,0.8
1503308756.0,286046999.5,N,0.7
1503308775.8,286046999.4,N,0.7
1503308795.6,286046999.1,N,0.7
1503308815.5,286046998.7,N,0.7
1503308835.3,286046998.6,N,0.7
1503308855.1,286046999.4,N,0.7
1503308875.9,286046999.5,N,0.7
1503308895.7,286046996.6,Y,0.0
1503308915.6,286046998.7,P,0.2
1503308935.4,286046998.7,P,0.2
1503308955.2,286046998.5,P,0.2
1503308975.1,286046998.3,Y,0.0
1503308976.0,286046998.3,P,0.2
1503308995.8,286047001.0,P,1.2
1503309015.7,286047002.4,N,1.7
1503309035.5,286046999.8,N,1.5
1503309055.3,286047000.2,N,1.4
1503309075.2,286047000.8,N,1.3
1503309095.0,286047000.6,N,1.2
1503309095.9,286047000.6,N,1.2
1503309115.8,286047002.7,N,1.3
1503309135.6,286046999.8,N,1.3
1503309155.4,286047000.8,N,1.2
1503309175.3,286047000.9,N,1.2
1503309195.1,286047001.2,N,1.2
1503309215.9,286047000.7,N,1.1
1503309235.7,286047000.5,N,1.1
1503309255.5,286047000.0,N,1.1
1503309275.4,286046999.9,N,1.0
1503309295.2,286046999.9,N,1.0
1503309315.0,286047000.3,N,1.0
1503309315.9,286047000.3,N,1.0
1503309335.8,286046998.3,N,1.0
1503309355.6,286046998.4,N,1.1
1503309375.5,286046999.0,N,1.1
1503309395.3,286046996.8,N,1.3
1503309415.1,286046997.1,N,1.4
1503309435.9,286046999.2,N,1.4
1503309455.7,286046996.6,N,1.5
1503309475.6,286046998.4,N,1.5
1503309495.4,286047000.8,N,1.5
1503309515.2,286047000.6,N,1.4
1503309535.1,286047000.8,N,1.4
1503309536.0,286047000.8,N,1.4
1503309555.8,286047001.1,N,1.4
1503309575.7,286046998.6,N,1.4
1503309595.5,286046998.7,N,1.4
